Goose, Canada

4:50 AM ADT on June 24, 2017 (GMT -0300)
Goose Bay

Weather History for CYYR - July, 2013

Change the Weather History Date:

Monday, July 1, 2013

  Actual Average Record
Temperature  
Mean Temperature 62 °F -  
Max Temperature 73 °F 70 °F 96 °F (2002)
Min Temperature 50 °F 50 °F 41 °F (1998)
Degree Days  
Heating Degree Days 4    
Growing Degree Days 12 (Base 50)    
Moisture  
Dew Point 47 °F    
Average Humidity 68    
Maximum Humidity 94    
Minimum Humidity 22    
Precipitation  
Precipitation 0.00 in 0.16 in - ()
Sea Level Pressure  
Sea Level Pressure 29.76 in    
Wind  
Wind Speed 7 mph ()    
Max Wind Speed 31 mph    
Max Gust Speed 41 mph    
Visibility 9.2 miles    
Events Fog    
Averages and records for this station are not official NWS values.
T = Trace of Precipitation, MM = Missing Value Source: Averaged Metar Reports

Daily Weather History Graph

Daily Weather History Graph

Search for Another Location

Airport or City:

Trip Planner

Search our weather history database for the weather conditions in past years. The results will help you decide how hot, cold, wet, or windy it might be!

Date:

Astronomy

Jul. 01, 2013 Rise Set
Actual Time 4:38 AM ADT 9:32 PM ADT
Civil Twilight 3:46 AM ADT 10:23 PM ADT
Nautical Twilight 2:17 AM ADT 11:52 PM ADT
Astronomical Twilight Sun does not set Sun does not set
Moon 12:42 AM ADT (7/1) 3:11 PM ADT (7/1)
Length of Visible Light 18h 37m
Length of Day
16h 53m
Last Quarter, 36% of the Moon is Illuminated
Jul 1
Last Quarter
Jul 8
New
Jul 16
First Quarter
Jul 22
Full
Jul 29
Last Quarter

Hourly Weather History & Observations

Time (ADT) Temp. Dew Point Humidity Pressure Visibility Wind Dir Wind Speed Gust Speed Precip Events Conditions
12:00 AM 59.0 °F 55.4 °F 88% 29.68 in 15.0 mi WSW 3.5 mph - N/A   Mostly Cloudy
1:00 AM 57.2 °F 55.4 °F 94% 29.70 in 15.0 mi West 4.6 mph - N/A   Scattered Clouds
2:00 AM 55.4 °F 53.6 °F 94% 29.70 in 15.0 mi Calm Calm - N/A Fog Shallow Fog
2:19 AM - - N/A% - 0.8 mi WSW 3.5 mph - N/A   Partly Cloudy
2:28 AM - - N/A% - 2.0 mi West 5.8 mph - N/A   Partly Cloudy
2:50 AM - - N/A% - 15.0 mi WSW 3.5 mph - N/A Fog Shallow Fog
3:00 AM 54 °F 51 °F 87% 29.70 in 7 mi WSW 4.6 mph - - Fog Patches of Fog
3:00 AM 53.6 °F 51.8 °F 94% 29.70 in 8.0 mi WSW 5.8 mph - N/A Fog Shallow Fog
3:27 AM - - N/A% - 0.5 mi Calm Calm - N/A Fog Fog
3:55 AM - - N/A% - 0.2 mi SW 3.5 mph - N/A Fog Fog
4:00 AM 51.8 °F 50.0 °F 94% 29.70 in 0.2 mi SW 2.3 mph - N/A Fog Fog
4:40 AM - - N/A% - 10.0 mi WNW 3.5 mph - N/A   Partly Cloudy
5:00 AM 51.8 °F 50.0 °F 94% 29.71 in 12.0 mi NW 4.6 mph - N/A   Partly Cloudy
5:53 AM - - N/A% - 0.1 mi South 2.3 mph - N/A Fog Fog
6:00 AM 51.8 °F 50.0 °F 94% 29.71 in 0.1 mi South 2.3 mph - N/A Fog Fog
7:00 AM 51.8 °F 50.0 °F 94% 29.71 in 0.1 mi NNW 2.3 mph - N/A Fog Fog
7:11 AM - - N/A% - 0.4 mi Calm Calm - N/A Fog Fog
7:27 AM - - N/A% - 2.5 mi Calm Calm - N/A   Clear
7:37 AM - - N/A% - 4.0 mi Calm Calm - N/A   Mostly Cloudy
8:00 AM 53.6 °F 51.8 °F 94% 29.71 in 3.0 mi Calm Calm - N/A   Mostly Cloudy
9:00 AM 55 °F 53 °F 91% 29.72 in 4 mi North 3.5 mph - -   Mist
9:00 AM 55.4 °F 53.6 °F 94% 29.72 in 4.0 mi North 3.5 mph - N/A   Mostly Cloudy
10:00 AM 59.0 °F 55.4 °F 88% 29.70 in 6.0 mi Calm Calm - N/A   Mostly Cloudy
11:00 AM 66.2 °F 57.2 °F 73% 29.69 in 15.0 mi SW 8.1 mph - N/A   Partly Cloudy
12:00 PM 71.6 °F 53.6 °F 53% 29.68 in 15.0 mi West 16.1 mph 27.6 mph N/A   Scattered Clouds
1:00 PM 69.8 °F 46.4 °F 43% 29.68 in 15.0 mi West 20.7 mph - N/A   Mostly Cloudy
2:00 PM 69.8 °F 46.4 °F 43% 29.69 in 15.0 mi West 25.3 mph 35.7 mph N/A   Mostly Cloudy
3:00 PM 70 °F 40 °F 22% 29.70 in 15 mi West 23.0 mph - -   Partly Cloudy
3:00 PM 69.8 °F 39.2 °F 33% 29.70 in 15.0 mi West 21.9 mph 33.4 mph N/A   Scattered Clouds
4:00 PM 71.6 °F 37.4 °F 29% 29.70 in 15.0 mi West 21.9 mph 34.5 mph N/A   Scattered Clouds
5:00 PM 68.0 °F 41.0 °F 37% 29.72 in 15.0 mi WNW 31.1 mph 41.4 mph N/A   Partly Cloudy
6:00 PM 60.8 °F 39.2 °F 45% 29.78 in 15.0 mi WNW 29.9 mph 39.1 mph N/A   Scattered Clouds
7:00 PM 55.4 °F 37.4 °F 51% 29.87 in 15.0 mi NW 26.5 mph 39.1 mph N/A   Mostly Cloudy
8:00 PM 51.8 °F 37.4 °F 58% 29.93 in 15.0 mi NNW 24.2 mph 31.1 mph N/A   Mostly Cloudy
9:00 PM 51 °F 37 °F 47% 29.96 in 15 mi NW 19.6 mph - -   Partly Cloudy
9:00 PM 51.8 °F 37.4 °F 58% 29.96 in 15.0 mi NW 15.0 mph 29.9 mph N/A   Mostly Cloudy
10:00 PM 50.0 °F 35.6 °F 58% 29.99 in 15.0 mi NW 16.1 mph 21.9 mph N/A   Mostly Cloudy
11:00 PM 50.0 °F 37.4 °F 62% 30.01 in 15.0 mi NW 8.1 mph - N/A   Mostly Cloudy